Weather History for MCMWTC BRIDGEPORT, CA, CA

Change the Weather History Date:

Tuesday, February 18, 2014

  Actual Average (KTVL) Record (KTVL)
Temperature  
Mean Temperature 37 °F 31 °F  
Max Temperature 53 °F 44 °F 55 °F (1977)
Min Temperature 21 °F 18 °F -5 °F (1990)
Degree Days  
Heating Degree Days 28 34  
Month to date heating degree days 624  
Since 1 July heating degree days 4906  
Cooling Degree Days 0 0  
Month to date cooling degree days 0  
Year to date cooling degree days 0  
Moisture  
Dew Point 14 °F    
Average Humidity 42    
Maximum Humidity 72    
Minimum Humidity 21    
Precipitation  
Precipitation 0.00 in - 4.36 in (1986)
Month to date precipitation  
Year to date precipitation  
Sea Level Pressure  
Sea Level Pressure 30.12 in    
Wind  
Wind Speed 2 mph (WSW)    
Max Wind Speed 17 mph    
Max Gust Speed 29 mph    
Visibility 10 miles    
Events      
T = Trace of Precipitation, MM = Missing Value Source: NWS Daily Summary

Daily Weather History Graph

Daily Weather History Graph

Search for Another Location

Airport:

Trip Planner

Search our weather history database for the weather conditions in past years. The results will help you decide how hot, cold, wet, or windy it might be!

Date:

Astronomy

Feb. 18, 2014 Rise Set
Actual Time 6:44 AM PST 5:39 PM PST
Civil Twilight 6:17 AM PST 6:06 PM PST
Nautical Twilight 5:46 AM PST 6:37 PM PST
Astronomical Twilight 5:16 AM PST 7:08 PM PST
Moon 9:34 PM PST (2/18) 8:23 AM PST (2/18)
Length of Visible Light 11h 48m
Length of Day
10h 55m
Waning Gibbous, 86% of the Moon is Illuminated
Feb 18
Waning Gibbous
Feb 22
Last Quarter
Mar 1
New
Mar 8
First Quarter
Mar 16
Full

Hourly Weather History & Observations

Time (PST) Temp. Windchill Dew Point Humidity Pressure Visibility Wind Dir Wind Speed Gust Speed Precip Events Conditions
12:52 AM 28.9 °F - 8.1 °F 41% 30.10 in 10.0 mi Calm Calm - N/A   Clear
1:52 AM 28.9 °F - 8.1 °F 41% 30.13 in 10.0 mi Calm Calm - N/A   Clear
2:52 AM 24.1 °F - 12.0 °F 60% 30.14 in 10.0 mi Calm Calm - N/A   Clear
3:52 AM 24.1 °F - 10.9 °F 57% 30.14 in 10.0 mi Calm Calm - N/A   Clear
4:52 AM 23.0 °F - 12.9 °F 65% 30.16 in 10.0 mi Calm Calm - N/A   Clear
5:52 AM 23.0 °F - 12.0 °F 63% 30.18 in 10.0 mi Calm Calm - N/A   Clear
6:52 AM 21.9 °F - 14.0 °F 72% 30.22 in 10.0 mi Calm Calm - N/A   Clear
7:52 AM 27.0 °F - 14.0 °F 58% 30.23 in 10.0 mi Calm Calm - N/A   Clear
8:52 AM 32.0 °F - 16.0 °F 52% 30.22 in 10.0 mi Calm Calm - N/A   Clear
9:52 AM 37.0 °F - 12.0 °F 36% 30.19 in 10.0 mi Calm Calm - N/A   Clear
10:52 AM 41.0 °F - 14.0 °F 33% 30.19 in 10.0 mi Calm Calm - N/A   Scattered Clouds
11:52 AM 46.0 °F - 10.9 °F 24% 30.14 in 10.0 mi Calm Calm - N/A   Overcast
12:52 PM 50.0 °F - 14.0 °F 24% 30.09 in 10.0 mi Calm Calm - N/A   Mostly Cloudy
1:52 PM 53.1 °F - 14.0 °F 21% 30.07 in 10.0 mi SW 11.5 mph - N/A   Mostly Cloudy
2:52 PM 52.0 °F - 14.0 °F 22% 30.08 in 10.0 mi SSW 9.2 mph 16.1 mph N/A   Overcast
3:52 PM 50.0 °F - 12.0 °F 22% 30.08 in 10.0 mi WSW 9.2 mph - N/A   Overcast
4:52 PM 48.0 °F - 16.0 °F 28% 30.08 in 10.0 mi SW 3.5 mph - N/A   Mostly Cloudy
5:52 PM 46.0 °F 43.9 °F 16.0 °F 30% 30.09 in 10.0 mi West 4.6 mph - N/A   Overcast
6:52 PM 41.0 °F 37.1 °F 19.0 °F 41% 30.12 in 10.0 mi NNW 5.8 mph - N/A   Overcast
7:52 PM 37.9 °F - 19.9 °F 48% 30.11 in 10.0 mi Calm Calm - N/A   Overcast
8:52 PM 37.0 °F 33.3 °F 19.9 °F 50% 30.08 in 10.0 mi North 4.6 mph - N/A   Mostly Cloudy
9:52 PM 37.0 °F 34.5 °F 19.9 °F 50% 30.06 in 10.0 mi Variable 3.5 mph - N/A   Scattered Clouds
10:52 PM 41.0 °F 36.4 °F 16.0 °F 36% 30.00 in 10.0 mi Variable 6.9 mph 24.2 mph N/A   Clear
11:52 PM 41.0 °F 32.5 °F 12.9 °F 32% 29.93 in 10.0 mi WSW 17.3 mph 28.8 mph N/A   Clear